| time (UTC) | temp C | wind direction | speed KPH | gust KPH | rain 1hr cm | rain 24hr cm | rain mn cm | humidity % | barometer mb |
| 20260506204021 | 13 | 20 | 0.0 | 1.6 | 0.00 | 0.00 | 0.00 | 84 | 1011.3 |
| 20260506203041 | 13 | 176 | 0.0 | 1.6 | 0.00 | 0.00 | 0.00 | 82 | 1011.2 |
| 20260506202021 | 14 | 217 | 0.0 | 3.2 | 0.00 | 0.00 | 0.00 | 82 | 1011.1 |
| 20260506201021 | 13 | 0.0 | 3.2 | 0.00 | 0.00 | 0.00 | 81 | 1011.2 | |
| 20260506200022 | 14 | 0.0 | 1.6 | 0.00 | 0.00 | 0.00 | 79 | 1010.9 | |
| 20260506195041 | 15 | 0.0 | 1.6 | 0.00 | 0.00 | 0.00 | 78 | 1010.8 | |
| 20260506194021 | 15 | 101 | 0.0 | 3.2 | 0.00 | 0.00 | 0.00 | 77 | 1010.7 |
| 20260506193021 | 15 | 19 | 0.0 | 3.2 | 0.00 | 0.00 | 0.00 | 76 | 1010.7 |
| 20260506192021 | 15 | 145 | 0.0 | 3.2 | 0.00 | 0.00 | 0.00 | 75 | 1010.6 |
| 20260506191021 | 16 | 0.0 | 3.2 | 0.00 | 0.00 | 0.00 | 75 | 1010.6 | |
| 20260506190021 | 16 | 156 | 0.0 | 3.2 | 0.00 | 0.00 | 0.00 | 74 | 1010.7 |
| 20260506185021 | 16 | 0.0 | 1.6 | 0.00 | 0.00 | 0.00 | 72 | 1010.7 | |
| 20260506184021 | 16 | 210 | 0.0 | 3.2 | 0.00 | 0.00 | 0.00 | 71 | 1010.7 |
| 20260506183021 | 16 | 102 | 1.6 | 3.2 | 0.00 | 0.00 | 0.00 | 70 | 1010.5 |
| 20260506182021 | 17 | 151 | 1.6 | 4.8 | 0.00 | 0.00 | 0.00 | 69 | 1010.5 |
| 20260506181041 | 17 | 189 | 1.6 | 3.2 | 0.00 | 0.00 | 0.00 | 68 | 1010.6 |
| 20260506180021 | 17 | 161 | 1.6 | 6.4 | 0.00 | 0.00 | 0.00 | 67 | 1010.5 |
| 20260506175021 | 17 | 282 | 3.2 | 4.8 | 0.00 | 0.00 | 0.00 | 66 | 1010.4 |
| 20260506174101 | 18 | 307 | 4.8 | 8.0 | 0.00 | 0.00 | 0.00 | 64 | 1010.3 |
| 20260506173021 | 17 | 233 | 1.6 | 4.8 | 0.00 | 0.00 | 0.00 | 66 | 1010.3 |
| 20260506172021 | 18 | 179 | 3.2 | 6.4 | 0.00 | 0.00 | 0.00 | 63 | 1010.3 |
| 20260506171041 | 18 | 188 | 3.2 | 8.0 | 0.00 | 0.00 | 0.00 | 64 | 1010.4 |
| 20260506170021 | 17 | 236 | 1.6 | 4.8 | 0.00 | 0.00 | 0.00 | 65 | 1010.5 |
| 20260506165021 | 18 | 234 | 3.2 | 4.8 | 0.00 | 0.00 | 0.00 | 64 | 1010.5 |
| 20260506164021 | 18 | 273 | 6.4 | 9.7 | 0.00 | 0.00 | 0.00 | 64 | 1010.5 |
| 20260506163021 | 18 | 225 | 4.8 | 9.7 | 0.00 | 0.00 | 0.00 | 65 | 1010.5 |
| 20260506162021 | 20 | 263 | 3.2 | 11.3 | 0.00 | 0.00 | 0.00 | 61 | 1010.5 |
| 20260506161041 | 20 | 247 | 3.2 | 8.0 | 0.00 | 0.00 | 0.00 | 61 | 1010.4 |
| 20260506160021 | 21 | 260 | 4.8 | 9.7 | 0.00 | 0.00 | 0.00 | 59 | 1010.3 |
| 20260506155021 | 20 | 282 | 4.8 | 11.3 | 0.00 | 0.00 | 0.00 | 62 | 1010.4 |
| 20260506154020 | 20 | 213 | 4.8 | 8.0 | 0.00 | 0.00 | 0.00 | 63 | 1010.4 |
| 20260506153021 | 20 | 232 | 4.8 | 12.9 | 0.00 | 0.00 | 0.00 | 64 | 1010.4 |
| 20260506152021 | 19 | 265 | 4.8 | 11.3 | 0.00 | 0.00 | 0.00 | 64 | 1010.4 |
| 20260506151020 | 18 | 264 | 4.8 | 8.0 | 0.00 | 0.00 | 0.00 | 65 | 1010.4 |
| 20260506150021 | 17 | 237 | 3.2 | 8.0 | 0.00 | 0.00 | 0.00 | 65 | 1010.4 |
| 20260506145021 | 18 | 265 | 4.8 | 11.3 | 0.00 | 0.00 | 0.00 | 64 | 1010.7 |
| 20260506144021 | 17 | 265 | 4.8 | 14.5 | 0.00 | 0.00 | 0.00 | 66 | 1010.4 |
| 20260506143020 | 17 | 244 | 4.8 | 9.7 | 0.00 | 0.00 | 0.00 | 66 | 1010.8 |
| 20260506142020 | 17 | 248 | 4.8 | 8.0 | 0.00 | 0.00 | 0.00 | 66 | 1010.9 |
| 20260506141020 | 17 | 235 | 3.2 | 8.0 | 0.00 | 0.00 | 0.00 | 67 | 1011.1 |
| 20260506140021 | 17 | 231 | 4.8 | 8.0 | 0.00 | 0.00 | 0.00 | 68 | 1011.0 |
| 20260506135020 | 17 | 240 | 6.4 | 11.3 | 0.00 | 0.00 | 0.00 | 68 | 1011.1 |
| 20260506134040 | 17 | 259 | 6.4 | 9.7 | 0.00 | 0.00 | 0.00 | 69 | 1011.2 |
| 20260506133021 | 17 | 229 | 3.2 | 12.9 | 0.00 | 0.00 | 0.00 | 68 | 1011.4 |
| 20260506132020 | 17 | 241 | 4.8 | 9.7 | 0.00 | 0.00 | 0.00 | 68 | 1011.4 |
| 20260506131021 | 18 | 252 | 4.8 | 9.7 | 0.00 | 0.00 | 0.00 | 66 | 1011.3 |
| 20260506130021 | 18 | 237 | 6.4 | 9.7 | 0.00 | 0.00 | 0.00 | 65 | 1011.3 |
| 20260506125021 | 18 | 225 | 4.8 | 9.7 | 0.00 | 0.00 | 0.00 | 65 | 1011.4 |
| 20260506124021 | 18 | 244 | 6.4 | 11.3 | 0.00 | 0.00 | 0.00 | 66 | 1011.3 |
| 20260506123041 | 18 | 241 | 6.4 | 9.7 | 0.00 | 0.00 | 0.00 | 67 | 1011.3 |
| 20260506122041 | 18 | 256 | 8.0 | 11.3 | 0.00 | 0.00 | 0.00 | 67 | 1011.4 |
| 20260506121041 | 18 | 249 | 4.8 | 9.7 | 0.00 | 0.00 | 0.00 | 67 | 1011.4 |
| 20260506120021 | 18 | 247 | 4.8 | 11.3 | 0.00 | 0.00 | 0.00 | 66 | 1011.5 |
| 20260506115020 | 18 | 257 | 6.4 | 9.7 | 0.00 | 0.00 | 0.00 | 66 | 1011.5 |
| 20260506114021 | 18 | 259 | 6.4 | 14.5 | 0.00 | 0.00 | 0.00 | 67 | 1011.7 |
| 20260506113021 | 19 | 270 | 6.4 | 12.9 | 0.00 | 0.00 | 0.00 | 67 | 1011.7 |
| 20260506112020 | 19 | 194 | 4.8 | 11.3 | 0.00 | 0.00 | 0.00 | 66 | 1011.8 |
| 20260506111020 | 18 | 237 | 6.4 | 9.7 | 0.00 | 0.00 | 0.00 | 66 | 1011.8 |
| 20260506110020 | 19 | 218 | 4.8 | 9.7 | 0.00 | 0.00 | 0.00 | 64 | 1012.0 |
| 20260506105020 | 19 | 249 | 6.4 | 11.3 | 0.00 | 0.00 | 0.00 | 64 | 1011.9 |
| 20260506104020 | 20 | 238 | 6.4 | 9.7 | 0.00 | 0.00 | 0.00 | 61 | 1011.9 |
| 20260506103020 | 19 | 299 | 9.7 | 17.7 | 0.00 | 0.00 | 0.00 | 65 | 1011.9 |
| 20260506102040 | 19 | 244 | 6.4 | 12.9 | 0.00 | 0.00 | 0.00 | 66 | 1011.8 |
| 20260506101021 | 20 | 185 | 6.4 | 14.5 | 0.00 | 0.00 | 0.00 | 62 | 1011.8 |
| 20260506100021 | 20 | 252 | 6.4 | 12.9 | 0.00 | 0.00 | 0.00 | 64 | 1011.7 |
| 20260506095021 | 19 | 274 | 6.4 | 14.5 | 0.00 | 0.00 | 0.00 | 65 | 1011.7 |
| 20260506094021 | 18 | 245 | 4.8 | 14.5 | 0.00 | 0.00 | 0.00 | 71 | 1011.7 |
| 20260506093021 | 18 | 259 | 6.4 | 11.3 | 0.00 | 0.00 | 0.00 | 69 | 1011.6 |
| 20260506092021 | 18 | 228 | 4.8 | 9.7 | 0.00 | 0.00 | 0.00 | 68 | 1011.4 |
| 20260506091020 | 19 | 257 | 6.4 | 14.5 | 0.00 | 0.00 | 0.00 | 66 | 1011.3 |
| 20260506090020 | 18 | 251 | 6.4 | 14.5 | 0.00 | 0.00 | 0.00 | 69 | 1011.3 |
| 20260506085040 | 18 | 257 | 6.4 | 9.7 | 0.00 | 0.00 | 0.00 | 69 | 1011.2 |
| 20260506084021 | 17 | 246 | 6.4 | 11.3 | 0.00 | 0.00 | 0.00 | 73 | 1011.2 |
| 20260506083040 | 17 | 271 | 6.4 | 12.9 | 0.00 | 0.00 | 0.00 | 74 | 1011.3 |
| 20260506082020 | 17 | 229 | 6.4 | 14.5 | 0.00 | 0.00 | 0.00 | 73 | 1011.4 |
| 20260506081020 | 17 | 255 | 4.8 | 12.9 | 0.00 | 0.00 | 0.00 | 75 | 1011.3 |
| 20260506073021 | 16 | 243 | 4.8 | 11.3 | 0.00 | 0.00 | 0.00 | 76 | 1011.2 |
| 20260506072041 | 16 | 322 | 6.4 | 12.9 | 0.00 | 0.00 | 0.00 | 77 | 1011.4 |
| 20260506071101 | 16 | 335 | 4.8 | 12.9 | 0.00 | 0.00 | 0.00 | 77 | 1011.2 |
| 20260506062022 | 16 | 333 | 8.0 | 17.7 | 0.00 | 0.00 | 0.00 | 77 | 1011.1 |
| 20260506061042 | 16 | 297 | 6.4 | 14.5 | 0.00 | 0.00 | 0.00 | 77 | 1011.1 |
| 20260506051041 | 15 | 317 | 4.8 | 9.7 | 0.00 | 0.00 | 0.00 | 82 | 1010.8 |
| 20260506045041 | 15 | 277 | 4.8 | 11.3 | 0.00 | 0.00 | 0.00 | 84 | 1010.6 |
| 20260506044021 | 15 | 246 | 3.2 | 6.4 | 0.00 | 0.00 | 0.00 | 84 | 1010.4 |
| 20260506043020 | 15 | 301 | 6.4 | 14.5 | 0.00 | 0.00 | 0.00 | 84 | 1010.4 |
| 20260506042020 | 15 | 307 | 4.8 | 12.9 | 0.00 | 0.00 | 0.00 | 84 | 1010.4 |
| 20260506041021 | 15 | 337 | 8.0 | 16.1 | 0.00 | 0.00 | 0.00 | 85 | 1010.4 |
| 20260506040020 | 15 | 325 | 6.4 | 14.5 | 0.00 | 0.00 | 0.00 | 86 | 1010.4 |
| 20260506035021 | 15 | 314 | 4.8 | 8.0 | 0.00 | 0.00 | 0.00 | 86 | 1010.4 |
| 20260506034021 | 15 | 317 | 3.2 | 6.4 | 0.00 | 0.00 | 0.00 | 87 | 1010.4 |
| 20260506033021 | 15 | 303 | 4.8 | 9.7 | 0.00 | 0.00 | 0.00 | 85 | 1010.3 |
| 20260506032020 | 15 | 315 | 6.4 | 12.9 | 0.00 | 0.00 | 0.00 | 85 | 1010.4 |
| 20260506031021 | 16 | 250 | 3.2 | 17.7 | 0.00 | 0.00 | 0.00 | 85 | 1010.2 |
| 20260506030021 | 16 | 246 | 4.8 | 9.7 | 0.00 | 0.00 | 0.00 | 86 | 1010.1 |
| 20260506025021 | 15 | 331 | 4.8 | 17.7 | 0.00 | 0.00 | 0.00 | 86 | 1010.0 |
| 20260506024042 | 16 | 232 | 3.2 | 9.7 | 0.00 | 0.00 | 0.00 | 86 | 1010.0 |
| 20260506023021 | 16 | 282 | 4.8 | 9.7 | 0.00 | 0.00 | 0.00 | 86 | 1010.0 |
| 20260506022041 | 16 | 316 | 4.8 | 12.9 | 0.00 | 0.00 | 0.00 | 86 | 1010.1 |
| 20260506021020 | 16 | 262 | 8.0 | 19.3 | 0.00 | 0.00 | 0.00 | 87 | 1010.1 |
| 20260506020040 | 16 | 313 | 4.8 | 19.3 | 0.00 | 0.00 | 0.00 | 87 | 1010.0 |
| 20260506015020 | 16 | 317 | 8.0 | 19.3 | 0.00 | 0.00 | 0.00 | 87 | 1010.0 |
| 20260506014020 | 16 | 336 | 17.7 | 33.8 | 0.00 | 0.00 | 0.00 | 88 | 1009.8 |
| 20260506013020 | 16 | 334 | 16.1 | 29.0 | 0.00 | 0.00 | 0.00 | 89 | 1009.9 |
| 20260506012020 | 16 | 327 | 17.7 | 35.4 | 0.00 | 0.00 | 0.00 | 89 | 1009.9 |
| 20260506011021 | 16 | 329 | 19.3 | 41.8 | 0.00 | 0.00 | 0.00 | 88 | 1010.0 |
| 20260506010041 | 16 | 332 | 22.5 | 38.6 | 0.00 | 0.00 | 0.00 | 88 | 1009.9 |
| 20260506005020 | 16 | 338 | 22.5 | 40.2 | 0.00 | 0.00 | 0.00 | 87 | 1010.1 |
| 20260506004020 | 17 | 342 | 24.1 | 38.6 | 0.00 | 0.00 | 0.00 | 86 | 1010.1 |
| 20260506003021 | 17 | 335 | 19.3 | 38.6 | 0.00 | 0.00 | 0.00 | 85 | 1010.1 |
| 20260506002040 | 17 | 338 | 24.1 | 41.8 | 0.00 | 0.00 | 0.00 | 84 | 1010.1 |
| 20260506001020 | 17 | 339 | 24.1 | 35.4 | 0.00 | 0.00 | 0.00 | 83 | 1010.2 |
| 20260506000021 | 17 | 323 | 17.7 | 27.4 | 0.00 | 0.00 | 0.00 | 81 | 1010.4 |
| 20260505235040 | 17 | 318 | 17.7 | 33.8 | 0.00 | 0.00 | 0.00 | 81 | 1010.4 |
| 20260505234022 | 17 | 337 | 20.9 | 33.8 | 0.00 | 0.00 | 0.00 | 79 | 1010.3 |
| 20260505233021 | 17 | 339 | 22.5 | 35.4 | 0.00 | 0.00 | 0.00 | 78 | 1010.1 |
| 20260505232022 | 17 | 324 | 16.1 | 32.2 | 0.00 | 0.00 | 0.00 | 74 | 1010.3 |
| 20260505231020 | 17 | 319 | 14.5 | 27.4 | 0.00 | 0.00 | 0.00 | 63 | 1010.3 |
| 20260505230041 | 17 | 337 | 16.1 | 30.6 | 0.00 | 0.00 | 0.00 | 57 | 1010.2 |
| 20260505225041 | 17 | 337 | 14.5 | 24.1 | 0.00 | 0.00 | 0.00 | 56 | 1009.9 |
| 20260505224021 | 14 | 329 | 11.3 | 24.1 | 0.00 | 0.00 | 0.00 | 76 | 1010.2 |
| 20260505223041 | 13 | 295 | 1.6 | 6.4 | 0.00 | 0.00 | 0.00 | 82 | 1010.0 |
| 20260505222021 | 13 | 61 | 0.0 | 3.2 | 0.00 | 0.00 | 0.00 | 81 | 1010.2 |
| 20260505221029 | 13 | 83 | 1.6 | 4.8 | 0.00 | 0.00 | 0.00 | 80 | 1010.2 |
| 20260505220021 | 15 | 169 | 1.6 | 4.8 | 0.00 | 0.00 | 0.00 | 78 | 1010.2 |
| 20260505215101 | 15 | 124 | 0.0 | 1.6 | 0.00 | 0.00 | 0.00 | 74 | 1010.3 |
| 20260505214021 | 15 | 310 | 0.0 | 1.6 | 0.00 | 0.00 | 0.00 | 73 | 1010.4 |
| 20260505213021 | 16 | 275 | 0.0 | 3.2 | 0.00 | 0.00 | 0.00 | 71 | 1010.4 |
| 20260505212021 | 16 | 117 | 0.0 | 4.8 | 0.00 | 0.00 | 0.00 | 71 | 1010.3 |
| 20260505211021 | 16 | 351 | 0.0 | 3.2 | 0.00 | 0.00 | 0.00 | 72 | 1010.4 |
| 20260505210021 | 16 | 0.0 | 1.6 | 0.00 | 0.00 | 0.00 | 71 | 1010.4 | |
| 20260505205021 | 16 | 0.0 | 1.6 | 0.00 | 0.00 | 0.00 | 72 | 1010.5 |